Time,TemperatureF,DewpointF,PressureIn,WindDirection,WindDirectionDegrees,WindSpeedMPH,WindSpeedGustMPH,Humidity,HourlyPrecipIn,Conditions,Clouds,dailyrainin,SoftwareType,DateUTC
2013-01-22 00:04:00,41.0,21.0,30.02,South,173,5.0,-999.0,44,-99.99,,,-99.99,,2013-01-22 05:04:00,
2013-01-22 00:12:00,41.0,21.0,30.02,South,173,5.0,-999.0,44,-99.99,,,-99.99,,2013-01-22 05:12:00,
2013-01-22 00:23:00,40.0,19.0,30.02,SW,217,4.0,-999.0,43,-99.99,,,-99.99,,2013-01-22 05:23:00,
2013-01-22 00:33:00,40.0,19.0,30.02,SW,217,4.0,-999.0,43,-99.99,,,-99.99,,2013-01-22 05:33:00,
2013-01-22 00:43:00,40.0,19.0,30.02,South,188,4.0,-999.0,43,-99.99,,,-99.99,,2013-01-22 05:43:00,
2013-01-22 00:52:00,40.0,19.0,30.01,East,99,3.0,-999.0,42,-99.99,,,-99.99,,2013-01-22 05:52:00,
2013-01-22 01:02:00,40.0,19.0,30.01,East,99,3.0,-999.0,42,-99.99,,,-99.99,,2013-01-22 06:02:00,
2013-01-22 01:12:00,40.0,19.0,30.01,East,99,3.0,-999.0,42,-99.99,,,-99.99,,2013-01-22 06:12:00,
2013-01-22 01:22:00,40.0,18.0,30.02,SW,220,3.0,-999.0,41,-99.99,,,-99.99,,2013-01-22 06:22:00,
2013-01-22 01:33:00,40.0,18.0,30.01,SW,222,2.0,-999.0,41,-99.99,,,-99.99,,2013-01-22 06:33:00,
2013-01-22 01:43:00,40.0,18.0,30.01,SW,222,2.0,-999.0,41,-99.99,,,-99.99,,2013-01-22 06:43:00,
2013-01-22 01:52:00,40.0,18.0,30.02,WNW,302,2.0,-999.0,41,-99.99,,,-99.99,,2013-01-22 06:52:00,
2013-01-22 02:02:00,39.0,17.0,30.02,NW,309,4.0,-999.0,41,-99.99,,,-99.99,,2013-01-22 07:02:00,
2013-01-22 02:12:00,39.0,17.0,30.02,NW,309,4.0,-999.0,41,-99.99,,,-99.99,,2013-01-22 07:12:00,
2013-01-22 02:22:00,39.0,18.0,30.02,West,272,2.0,-999.0,42,-99.99,,,-99.99,,2013-01-22 07:22:00,
2013-01-22 02:33:00,38.0,18.0,30.03,NNW,331,2.0,-999.0,43,-99.99,,,-99.99,,2013-01-22 07:33:00,
2013-01-22 02:42:00,38.0,18.0,30.03,NNW,331,2.0,-999.0,43,-99.99,,,-99.99,,2013-01-22 07:42:00,
2013-01-22 02:52:00,38.0,18.0,30.03,NW,325,1.0,-999.0,44,-99.99,,,-99.99,,2013-01-22 07:52:00,
2013-01-22 03:02:00,38.0,18.0,30.03,North,350,3.0,-999.0,43,-99.99,,,-99.99,,2013-01-22 08:02:00,
2013-01-22 03:12:00,38.0,18.0,30.03,North,350,3.0,-999.0,43,-99.99,,,-99.99,,2013-01-22 08:12:00,
2013-01-22 03:22:00,38.0,18.0,30.03,West,260,4.0,-999.0,43,-99.99,,,-99.99,,2013-01-22 08:22:00,
2013-01-22 03:33:00,37.0,16.0,30.04,NW,305,3.0,-999.0,42,-99.99,,,-99.99,,2013-01-22 08:33:00,
2013-01-22 03:43:00,37.0,16.0,30.04,NW,305,3.0,-999.0,42,-99.99,,,-99.99,,2013-01-22 08:43:00,
2013-01-22 03:52:00,38.0,17.0,30.03,NNW,346,3.0,-999.0,42,-99.99,,,-99.99,,2013-01-22 08:52:00,
2013-01-22 04:02:00,37.0,16.0,30.04,WSW,250,2.0,-999.0,42,-99.99,,,-99.99,,2013-01-22 09:02:00,
2013-01-22 04:12:00,37.0,16.0,30.04,WSW,250,2.0,-999.0,42,-99.99,,,-99.99,,2013-01-22 09:12:00,
2013-01-22 04:22:00,37.0,16.0,30.03,NNW,343,3.0,-999.0,42,-99.99,,,-99.99,,2013-01-22 09:22:00,
2013-01-22 04:33:00,37.0,16.0,30.03,West,263,3.0,-999.0,42,-99.99,,,-99.99,,2013-01-22 09:33:00,
2013-01-22 04:43:00,37.0,16.0,30.03,West,263,3.0,-999.0,42,-99.99,,,-99.99,,2013-01-22 09:43:00,
2013-01-22 04:52:00,36.0,15.0,30.03,NW,318,4.0,-999.0,42,-99.99,,,-99.99,,2013-01-22 09:52:00,
2013-01-22 05:03:00,36.0,16.0,30.04,WNW,300,5.0,-999.0,43,-99.99,,,-99.99,,2013-01-22 10:03:00,
2013-01-22 05:12:00,36.0,16.0,30.04,WNW,300,5.0,-999.0,43,-99.99,,,-99.99,,2013-01-22 10:12:00,
2013-01-22 05:22:00,36.0,16.0,30.05,WNW,302,2.0,-999.0,44,-99.99,,,-99.99,,2013-01-22 10:22:00,
2013-01-22 05:33:00,35.0,16.0,30.06,NNW,327,1.0,-999.0,45,-99.99,,,-99.99,,2013-01-22 10:33:00,
2013-01-22 05:42:00,35.0,16.0,30.06,NNW,327,1.0,-999.0,45,-99.99,,,-99.99,,2013-01-22 10:42:00,
2013-01-22 05:52:00,34.0,16.0,30.07,ENE,65,0.0,-999.0,47,-99.99,,,-99.99,,2013-01-22 10:52:00,
2013-01-22 06:02:00,33.0,15.0,30.07,North,5,1.0,-999.0,47,-99.99,,,-99.99,,2013-01-22 11:02:00,
2013-01-22 06:12:00,33.0,15.0,30.07,North,5,1.0,-999.0,47,-99.99,,,-99.99,,2013-01-22 11:12:00,
2013-01-22 06:23:00,32.0,15.0,30.08,NNE,31,1.0,-999.0,48,-99.99,,,-99.99,,2013-01-22 11:23:00,
2013-01-22 06:33:00,32.0,14.0,30.09,North,350,1.0,-999.0,47,-99.99,,,-99.99,,2013-01-22 11:33:00,
2013-01-22 06:43:00,32.0,14.0,30.09,North,350,1.0,-999.0,47,-99.99,,,-99.99,,2013-01-22 11:43:00,
2013-01-22 06:53:00,32.0,14.0,30.09,NNE,12,0.0,-999.0,47,-99.99,,,-99.99,,2013-01-22 11:53:00,
2013-01-22 07:04:00,31.0,14.0,30.10,NE,49,1.0,-999.0,48,-99.99,,,-99.99,,2013-01-22 12:04:00,
2013-01-22 07:13:00,31.0,14.0,30.10,NE,49,1.0,-999.0,48,-99.99,,,-99.99,,2013-01-22 12:13:00,
2013-01-22 07:23:00,30.0,13.0,30.11,NE,51,1.0,-999.0,48,-99.99,,,-99.99,,2013-01-22 12:23:00,
2013-01-22 07:33:00,30.0,13.0,30.11,NE,51,1.0,-999.0,48,-99.99,,,-99.99,,2013-01-22 12:33:00,
2013-01-22 07:40:00,29.0,13.0,30.12,NE,48,0.0,-999.0,50,-99.99,,,-99.99,,2013-01-22 12:40:00,
2013-01-22 07:43:00,30.0,13.0,30.12,ENE,64,0.0,-999.0,49,-99.99,,,-99.99,,2013-01-22 12:43:00,
2013-01-22 07:52:00,30.0,13.0,30.13,ENE,68,1.0,-999.0,49,-99.99,,,-99.99,,2013-01-22 12:52:00,
2013-01-22 08:04:00,29.0,13.0,30.12,NE,48,0.0,-999.0,50,-99.99,,,-99.99,,2013-01-22 13:04:00,
2013-01-22 08:14:00,29.0,13.0,30.12,NE,48,0.0,-999.0,50,-99.99,,,-99.99,,2013-01-22 13:14:00,
2013-01-22 08:23:00,29.0,13.0,30.12,NE,48,0.0,-999.0,50,-99.99,,,-99.99,,2013-01-22 13:23:00,
2013-01-22 08:33:00,29.0,13.0,30.12,NE,48,0.0,-999.0,50,-99.99,,,-99.99,,2013-01-22 13:33:00,
2013-01-22 08:54:00,31.0,13.0,30.15,East,84,1.0,-999.0,46,-99.99,,,-99.99,,2013-01-22 13:54:00,
2013-01-22 09:03:00,32.0,13.0,30.16,NE,45,1.0,-999.0,44,-99.99,,,-99.99,,2013-01-22 14:03:00,
2013-01-22 09:13:00,32.0,13.0,30.16,NE,45,1.0,-999.0,44,-99.99,,,-99.99,,2013-01-22 14:13:00,
2013-01-22 09:23:00,33.0,12.0,30.18,NE,47,1.0,-999.0,42,-99.99,,,-99.99,,2013-01-22 14:23:00,
2013-01-22 09:34:00,33.0,12.0,30.18,ENE,77,1.0,-999.0,42,-99.99,,,-99.99,,2013-01-22 14:34:00,
2013-01-22 09:44:00,33.0,12.0,30.18,ENE,77,1.0,-999.0,42,-99.99,,,-99.99,,2013-01-22 14:44:00,
2013-01-22 09:53:00,34.0,12.0,30.19,NE,51,1.0,-999.0,40,-99.99,,,-99.99,,2013-01-22 14:53:00,
2013-01-22 10:04:00,34.0,12.0,30.19,NNE,25,1.0,-999.0,40,-99.99,,,-99.99,,2013-01-22 15:04:00,
2013-01-22 10:13:00,34.0,12.0,30.19,NNE,25,1.0,-999.0,40,-99.99,,,-99.99,,2013-01-22 15:13:00,
2013-01-22 10:24:00,35.0,11.0,30.21,ENE,65,1.0,-999.0,37,-99.99,,,-99.99,,2013-01-22 15:24:00,
2013-01-22 10:34:00,36.0,13.0,30.21,NE,39,1.0,-999.0,38,-99.99,,,-99.99,,2013-01-22 15:34:00,
2013-01-22 10:43:00,36.0,13.0,30.21,NE,39,1.0,-999.0,38,-99.99,,,-99.99,,2013-01-22 15:43:00,
2013-01-22 10:53:00,36.0,12.0,30.22,NE,36,2.0,-999.0,37,-99.99,,,-99.99,,2013-01-22 15:53:00,
2013-01-22 11:04:00,37.0,12.0,30.22,East,86,1.0,-999.0,35,-99.99,,,-99.99,,2013-01-22 16:04:00,
2013-01-22 11:13:00,37.0,12.0,30.22,East,86,1.0,-999.0,35,-99.99,,,-99.99,,2013-01-22 16:13:00,
2013-01-22 11:24:00,38.0,12.0,30.22,East,80,1.0,-999.0,34,-99.99,,,-99.99,,2013-01-22 16:24:00,
2013-01-22 11:33:00,38.0,12.0,30.22,West,273,1.0,-999.0,34,-99.99,,,-99.99,,2013-01-22 16:33:00,
2013-01-22 11:43:00,38.0,12.0,30.22,West,273,1.0,-999.0,34,-99.99,,,-99.99,,2013-01-22 16:43:00,
2013-01-22 11:53:00,37.0,13.0,30.22,NW,308,3.0,-999.0,36,-99.99,,,-99.99,,2013-01-22 16:53:00,
2013-01-22 12:04:00,38.0,13.0,30.22,North,11,1.0,-999.0,35,-99.99,,,-99.99,,2013-01-22 17:04:00,
2013-01-22 12:13:00,38.0,13.0,30.22,North,11,1.0,-999.0,35,-99.99,,,-99.99,,2013-01-22 17:13:00,
2013-01-22 12:23:00,39.0,13.0,30.22,NW,313,2.0,-999.0,34,-99.99,,,-99.99,,2013-01-22 17:23:00,
2013-01-22 12:34:00,39.0,14.0,30.21,WNW,295,3.0,-999.0,35,-99.99,,,-99.99,,2013-01-22 17:34:00,
2013-01-22 12:44:00,39.0,14.0,30.21,WNW,295,3.0,-999.0,35,-99.99,,,-99.99,,2013-01-22 17:44:00,
2013-01-22 12:53:00,41.0,14.0,30.19,South,181,1.0,-999.0,33,-99.99,,,-99.99,,2013-01-22 17:53:00,
2013-01-22 13:04:00,41.0,13.0,30.19,SW,230,2.0,-999.0,32,-99.99,,,-99.99,,2013-01-22 18:04:00,
2013-01-22 13:13:00,41.0,13.0,30.19,SW,230,2.0,-999.0,32,-99.99,,,-99.99,,2013-01-22 18:13:00,
2013-01-22 13:24:00,43.0,14.0,30.18,South,176,1.0,-999.0,31,-99.99,,,-99.99,,2013-01-22 18:24:00,
2013-01-22 13:34:00,44.0,15.0,30.18,SSW,209,1.0,-999.0,31,-99.99,,,-99.99,,2013-01-22 18:34:00,
2013-01-22 13:43:00,44.0,15.0,30.18,SSW,209,1.0,-999.0,31,-99.99,,,-99.99,,2013-01-22 18:43:00,
2013-01-22 13:53:00,43.0,15.0,30.17,North,360,1.0,-999.0,32,-99.99,,,-99.99,,2013-01-22 18:53:00,
2013-01-22 14:04:00,45.0,15.0,30.16,NE,51,3.0,-999.0,30,-99.99,,,-99.99,,2013-01-22 19:04:00,
2013-01-22 14:13:00,45.0,15.0,30.16,NE,51,3.0,-999.0,30,-99.99,,,-99.99,,2013-01-22 19:13:00,
2013-01-22 14:24:00,46.0,13.0,30.16,WNW,286,2.0,-999.0,26,-99.99,,,-99.99,,2013-01-22 19:24:00,
2013-01-22 14:34:00,46.0,13.0,30.15,WSW,257,3.0,-999.0,26,-99.99,,,-99.99,,2013-01-22 19:34:00,
2013-01-22 14:43:00,46.0,13.0,30.15,WSW,257,3.0,-999.0,26,-99.99,,,-99.99,,2013-01-22 19:43:00,
2013-01-22 14:53:00,47.0,12.0,30.15,South,178,2.0,-999.0,24,-99.99,,,-99.99,,2013-01-22 19:53:00,
2013-01-22 15:03:00,47.0,12.0,30.15,NW,310,3.0,-999.0,24,-99.99,,,-99.99,,2013-01-22 20:03:00,
2013-01-22 15:13:00,47.0,12.0,30.15,NW,310,3.0,-999.0,24,-99.99,,,-99.99,,2013-01-22 20:13:00,
2013-01-22 15:23:00,47.0,12.0,30.15,West,277,2.0,-999.0,24,-99.99,,,-99.99,,2013-01-22 20:23:00,
2013-01-22 15:33:00,47.0,10.0,30.14,South,177,3.0,-999.0,22,-99.99,,,-99.99,,2013-01-22 20:33:00,
2013-01-22 15:43:00,47.0,10.0,30.14,South,177,3.0,-999.0,22,-99.99,,,-99.99,,2013-01-22 20:43:00,
2013-01-22 15:53:00,48.0,10.0,30.14,South,178,3.0,-999.0,21,-99.99,,,-99.99,,2013-01-22 20:53:00,
2013-01-22 16:04:00,48.0,12.0,30.14,NW,308,2.0,-999.0,23,-99.99,,,-99.99,,2013-01-22 21:04:00,
2013-01-22 16:13:00,48.0,12.0,30.14,NW,308,2.0,-999.0,23,-99.99,,,-99.99,,2013-01-22 21:13:00,
2013-01-22 16:23:00,48.0,11.0,30.14,NW,321,2.0,-999.0,22,-99.99,,,-99.99,,2013-01-22 21:23:00,
2013-01-22 16:34:00,47.0,15.0,30.15,NE,46,4.0,-999.0,27,-99.99,,,-99.99,,2013-01-22 21:34:00,
2013-01-22 16:43:00,47.0,15.0,30.15,NE,46,4.0,-999.0,27,-99.99,,,-99.99,,2013-01-22 21:43:00,
2013-01-22 16:53:00,46.0,16.0,30.15,ENE,60,1.0,-999.0,29,-99.99,,,-99.99,,2013-01-22 21:53:00,
2013-01-22 17:03:00,45.0,15.0,30.16,North,350,1.0,-999.0,30,-99.99,,,-99.99,,2013-01-22 22:03:00,
2013-01-22 17:13:00,45.0,15.0,30.16,North,350,1.0,-999.0,30,-99.99,,,-99.99,,2013-01-22 22:13:00,
2013-01-22 17:23:00,46.0,11.0,30.16,WNW,284,4.0,-999.0,24,-99.99,,,-99.99,,2013-01-22 22:23:00,
2013-01-22 17:33:00,46.0,11.0,30.16,WNW,284,4.0,-999.0,24,-99.99,,,-99.99,,2013-01-22 22:33:00,
2013-01-22 17:43:00,46.0,12.0,30.16,NW,315,1.0,-999.0,25,-99.99,,,-99.99,,2013-01-22 22:43:00,
2013-01-22 17:53:00,45.0,12.0,30.17,WSW,256,1.0,-999.0,26,-99.99,,,-99.99,,2013-01-22 22:53:00,
2013-01-22 18:03:00,45.0,14.0,30.18,NW,309,2.0,-999.0,28,-99.99,,,-99.99,,2013-01-22 23:03:00,
2013-01-22 18:12:00,45.0,14.0,30.18,NW,309,2.0,-999.0,28,-99.99,,,-99.99,,2013-01-22 23:12:00,
2013-01-22 18:24:00,44.0,14.0,30.19,West,280,3.0,-999.0,29,-99.99,,,-99.99,,2013-01-22 23:24:00,
2013-01-22 18:33:00,43.0,15.0,30.18,NNW,336,1.0,-999.0,32,-99.99,,,-99.99,,2013-01-22 23:33:00,
2013-01-22 18:43:00,43.0,15.0,30.18,NNW,336,1.0,-999.0,32,-99.99,,,-99.99,,2013-01-22 23:43:00,
2013-01-22 18:53:00,42.0,16.0,30.19,North,355,0.0,-999.0,34,-99.99,,,-99.99,,2013-01-22 23:53:00,
2013-01-22 19:03:00,42.0,16.0,30.19,North,355,0.0,-999.0,34,-99.99,,,-99.99,,2013-01-23 00:03:00,
2013-01-22 19:13:00,42.0,16.0,30.19,North,355,0.0,-999.0,34,-99.99,,,-99.99,,2013-01-23 00:13:00,
2013-01-22 19:23:00,40.0,14.0,30.19,North,5,0.0,-999.0,34,-99.99,,,-99.99,,2013-01-23 00:23:00,
2013-01-22 19:33:00,39.0,13.0,30.19,NNE,27,0.0,-999.0,34,-99.99,,,-99.99,,2013-01-23 00:33:00,
2013-01-22 19:43:00,39.0,13.0,30.19,NNE,27,0.0,-999.0,34,-99.99,,,-99.99,,2013-01-23 00:43:00,
2013-01-22 19:52:00,38.0,13.0,30.19,NNE,27,0.0,-999.0,36,-99.99,,,-99.99,,2013-01-23 00:52:00,
2013-01-22 20:03:00,38.0,13.0,30.19,NNE,27,0.0,-999.0,35,-99.99,,,-99.99,,2013-01-23 01:03:00,
2013-01-22 20:13:00,38.0,13.0,30.19,NNE,27,0.0,-999.0,35,-99.99,,,-99.99,,2013-01-23 01:13:00,
2013-01-22 20:23:00,37.0,14.0,30.20,NNE,27,0.0,-999.0,38,-99.99,,,-99.99,,2013-01-23 01:23:00,
2013-01-22 20:33:00,37.0,13.0,30.21,NNE,28,0.0,-999.0,37,-99.99,,,-99.99,,2013-01-23 01:33:00,
2013-01-22 20:43:00,37.0,13.0,30.21,NNE,28,0.0,-999.0,37,-99.99,,,-99.99,,2013-01-23 01:43:00,
2013-01-22 20:52:00,36.0,13.0,30.21,NNE,27,0.0,-999.0,39,-99.99,,,-99.99,,2013-01-23 01:52:00,
2013-01-22 21:03:00,36.0,13.0,30.22,WNW,299,0.0,-999.0,39,-99.99,,,-99.99,,2013-01-23 02:03:00,
2013-01-22 21:13:00,36.0,13.0,30.22,WNW,299,0.0,-999.0,39,-99.99,,,-99.99,,2013-01-23 02:13:00,
2013-01-22 21:23:00,35.0,14.0,30.22,WNW,299,0.0,-999.0,41,-99.99,,,-99.99,,2013-01-23 02:23:00,
2013-01-22 21:33:00,35.0,13.0,30.22,WNW,300,0.0,-999.0,39,-99.99,,,-99.99,,2013-01-23 02:33:00,
2013-01-22 21:43:00,35.0,13.0,30.22,WNW,300,0.0,-999.0,39,-99.99,,,-99.99,,2013-01-23 02:43:00,
2013-01-22 21:53:00,34.0,13.0,30.22,WNW,300,0.0,-999.0,42,-99.99,,,-99.99,,2013-01-23 02:53:00,
2013-01-22 22:03:00,34.0,14.0,30.22,WNW,300,0.0,-999.0,44,-99.99,,,-99.99,,2013-01-23 03:03:00,
2013-01-22 22:13:00,34.0,14.0,30.22,WNW,300,0.0,-999.0,44,-99.99,,,-99.99,,2013-01-23 03:13:00,
2013-01-22 22:23:00,34.0,15.0,30.22,WNW,300,0.0,-999.0,45,-99.99,,,-99.99,,2013-01-23 03:23:00,
2013-01-22 22:33:00,34.0,16.0,30.23,WNW,300,0.0,-999.0,47,-99.99,,,-99.99,,2013-01-23 03:33:00,
2013-01-22 22:43:00,34.0,16.0,30.23,WNW,300,0.0,-999.0,47,-99.99,,,-99.99,,2013-01-23 03:43:00,
2013-01-22 22:53:00,34.0,16.0,30.23,WNW,300,0.0,-999.0,47,-99.99,,,-99.99,,2013-01-23 03:53:00,
2013-01-22 23:03:00,33.0,16.0,30.24,SW,215,0.0,-999.0,49,-99.99,,,-99.99,,2013-01-23 04:03:00,
2013-01-22 23:13:00,33.0,16.0,30.24,SW,215,0.0,-999.0,49,-99.99,,,-99.99,,2013-01-23 04:13:00,
2013-01-22 23:23:00,33.0,15.0,30.24,West,277,0.0,-999.0,47,-99.99,,,-99.99,,2013-01-23 04:23:00,
2013-01-22 23:33:00,33.0,15.0,30.24,WNW,289,0.0,-999.0,47,-99.99,,,-99.99,,2013-01-23 04:33:00,
2013-01-22 23:43:00,33.0,15.0,30.24,WNW,289,0.0,-999.0,47,-99.99,,,-99.99,,2013-01-23 04:43:00,
2013-01-22 23:53:00,33.0,15.0,30.24,WNW,290,0.0,-999.0,47,-99.99,,,-99.99,,2013-01-23 04:53:00,